Regional Weather Roundup
Issued by NWS Boston, MA

Current Version | Previous Version | Text Only | Print | Product List | Glossary Off
Versions: 1 2 3 4 5 6 7 8 9 10 11 12 13 14 15 16 17 18 19 20 21 22 23 24 25 26 27 28 29 30 31 32 33 34 35 36 37 38 39 40 41 42 43 44 45 46 47 48 49 50
267 ASUS41 KBOX 182310 RWRBOX REGIONAL WEATHER ROUNDUP NATIONAL WEATHER SERVICE BOSTON/NORTON MA 700 PM EDT THU OCT 18 2018 NOTE: "FAIR" INDICATES FEW OR NO CLOUDS BELOW 12,000 FEET WITH NO SIGNIFICANT WEATHER AND/OR OBSTRUCTIONS TO VISIBILITY. MAZALL-190000- EASTERN MASSACHUSETTS CITY SKY/WX TMP DP RH WIND PRES REMARKS BOSTON NOT AVBL BEVERLY FAIR 39 19 44 W5 30.23R LAWRENCE FAIR 42 18 37 W3 30.26R BEDFORD FAIR 39 20 46 W6 30.24R BLUE HILL N/A 37 20 50 W14 30.22R WCI 28 NORWOOD FAIR 42 19 39 W5 30.26R MARSHFIELD FAIR 37 27 65 CALM 30.25R PLYMOUTH FAIR 41 21 44 W5 30.26R TAUNTON FAIR 43 18 36 NW6 30.26R NEW BEDFORD FAIR 41 22 46 CALM 30.26R $$ MAZALL-190000- CAPE COD AND THE ISLANDS CITY SKY/WX TMP DP RH WIND PRES REMARKS FALMOUTH FAIR 39 19 45 W10 30.27R HYANNIS FAIR 41 22 46 W5 30.24R CHATHAM FAIR 37 24 59 SW3 30.26R PROVINCETOWN FAIR 45 20 36 W20G26 30.24R NANTUCKET FAIR 43 19 38 W16 30.25R MARTHAS VNYRD FAIR 42 22 44 W6 30.26R $$ MAZALL-190000- CENTRAL AND WESTERN MASSACHUSETTS CITY SKY/WX TMP DP RH WIND PRES REMARKS WORCESTER FAIR 36 19 50 W8 30.23R WCI 30 FITCHBURG FAIR 35 23 61 CALM 30.25R ORANGE FAIR 40 16 37 W6 30.26R SPRINGFIELD CLEAR 40 16 37 W8 30.27R WESTFIELD FAIR 41 18 39 W10 30.27R NORTH ADAMS FAIR 38 20 48 W20G25 30.27R WCI 28 PITTSFIELD FAIR 37 16 42 MISG 30.25R $$ RIZALL-190000- RHODE ISLAND CITY SKY/WX TMP DP RH WIND PRES REMARKS PROVIDENCE FAIR 41 21 44 W7 30.28R NEWPORT FAIR 43 21 41 W9 30.28R BLOCK ISLAND FAIR 45 22 40 NW9G22 30.30R SMITHFIELD FAIR 36 23 59 CALM 30.26R WESTERLY FAIR 42 23 46 VRB3 30.30R $$ CTZALL-190000- CONNECTICUT CITY SKY/WX TMP DP RH WIND PRES REMARKS BRADLEY INTL FAIR 40 19 43 CALM 30.29R HARTFORD FAIR 44 20 38 CALM 30.29R BRIDGEPORT FAIR 46 22 38 W7 30.32R DANBURY FAIR 41 22 46 W7 30.31R GROTON FAIR 41 23 48 CALM 30.30R NEW HAVEN FAIR 48 24 39 W6 30.31R CHESTER FAIR 39 25 56 CALM 30.29R MERIDEN FAIR 38 28 67 CALM 30.30R WILLIMANTIC FAIR 38 25 59 CALM 30.29R OXFORD FAIR 41 22 46 W3 30.29R $$ MEZ002-015-021-024-NHZ003-005-008-011-012-014-VTZ005-008-190000- NORTHERN NEW ENGLAND CITY SKY/WX TMP DP RH WIND PRES REMARKS PORTLAND ME FAIR 36 20 52 W6 30.21R WCI 31 BANGOR ME FAIR 36 14 40 W6 30.12R WCI 31 CONCORD NH FAIR 36 18 48 W3 30.22R MANCHESTER NH FAIR 41 16 36 W5 30.21R NASHUA NH FAIR 36 22 56 CALM 30.25R PORTSMOUTH NH CLEAR 38 17 42 W6 30.21 JAFFREY NH FAIR 36 21 54 VRB6 30.22R WCI 31 KEENE NH FAIR 38 17 42 VRB5 30.24R BURLINGTON VT FAIR 40 15 36 W12G20 30.24R MT. WASHINGTON BLWGSNOW 9 9 100 W62G70 N/A VSB 1/16WCI -21 $$ NYZ052-076-190000- EASTERN NEW YORK CITY SKY/WX TMP DP RH WIND PRES REMARKS ALBANY FAIR 41 21 44 NW17G29 30.32R NEW YORK CITY FAIR 51 24 34 NW13 30.33R $$ ANZALL-190000- MARINE OBSERVATIONS STATION/POSITION TIME TEMP WIND PRES VSBY WAVE AIR SEA DIR/SP/G HT/PER (UTC) (F) (DEG/KT/KT) (MB) (MI) (FT/S) BOSTON BUOY 2250 46 58 290/ 17/ 25 1023.3R 3/ 4 BUZZARDS BAY 2200 46 300/ 19/ 22 1024.8R NANTUCKET SOUND 2250 47 61 300/ 16/ 21 1024.2R 2/ 3 MASS BAY-STELLWA 2204 45 57 300/ 14/ 19 1022.3R 1 7/8 2/ 4 ISLE OF SHOALS 2200 43 290/ 19/ 23 1022.1R S OF BLOCK IS 2243 63 N/A 6/ 5 $$ ......................KEY......................... SKY/WX - SKY CONDITION/PRESENT WEATHER TMP - TEMPERATURE IN FAHRENHEIT DWPT - DEWPOINT IN FAHRENHEIT RH - RELATIVE HUMIDITY IN PERCENT WIND - DIRECTION AND SPEED IN MPH PRES - MEAN SEA LEVEL PRESSURE IN INCHES OF HG WCI - WIND CHILL INDEX VSB - VISIBILITY IN MILES HX - HEAT INDEX TC - TEMPERATURE IN CELSIUS VRB - VARIABLE WIND DIRECTION N/A - NOT AVAILABLE

USA.gov is the U.S. government's official web portal to all federal, state and local government web resources and services.